Regional Weather Roundup
Issued by NWS Charleston, SC

Current Version | Previous Version | Text Only | Print | Product List | Glossary On
Versions: 1 2 3 4 5 6 7 8 9 10 11 12 13 14 15 16 17 18 19 20 21 22 23 24 25 26 27 28 29 30 31 32 33 34 35 36 37 38 39 40 41 42 43 44 45 46 47 48 49 50
000 ASUS42 KCHS 210725 RWRCHS REGIONAL WEATHER ROUNDUP NATIONAL WEATHER SERVICE CHARLESTON SC 300 AM EDT THU AUG 21 2014 NOTE: "FAIR" INDICATES FEW OR NO CLOUDS BELOW 12,000 FEET WITH NO SIGNIFICANT WEATHER AND/OR OBSTRUCTIONS TO VISIBILITY. NOT ALL STATIONS ARE QUALITY CONTROLLED BY THE NATIONAL WEATHER SERVICE. USE DATA WITH CAUTION...ESPECIALLY DEWPOINT OBSERVATIONS. SCZ027-030-031-034>040-042>050-210800- ...SOUTH CAROLINA... CITY SKY/WX TMP DP RH WIND PRES REMARKS N CHARLESTON MOCLDY 80 73 79 SW3 30.01F WATERFRONT PRK N/A 82 N/A N/A W5 N/A FORT JOHNSON NOT AVBL MOUNT PLEASANT FAIR 79 75 89 CALM 30.00F JOHNS ISLAND SUNNY 79 77 94 CALM 30.01F PINOPOLIS N/A 82 73 74 W7 29.93F MONCKS CORNER N/A 77 75 94 CALM 30.01S SUMMERVILLE FAIR 75 73 94 CALM 30.02F BEAUFORT MCAS PTCLDY 77 71 82 CALM 30.02F BEAUFORT ARPT FAIR 77 72 83 W6 30.02S HILTON HEAD IS PTCLDY 79 72 78 SW5 30.04S GEORGETOWN NOT AVBL WALTERBORO PTSUNNY 77 77 100 CALM 30.03S ORANGEBURG MOCLDY 74 69 85 CALM 30.02F BARNWELL FAIR 75 70 83 SW3 30.03F AIKEN FAIR 73 72 94 SW3 30.06F MANNING FAIR 77 N/A N/A CALM 30.00F KINGSTREE NOT AVBL COLUMBIA CLOUDY 78 70 76 S3 30.00F SUMTER MOCLDY 79 72 79 NW8 29.99F FLORENCE PTCLDY 76 73 91 SE3 29.99F MYRTLE BEACH CLEAR 79 73 83 CALM 30.00F N MYRTLE BEACH CLEAR 76 76 100 CALM 29.99F FOG $$ GAZ063-065-086>088-099>101-113>116-118-119-134-136>141-150-210800- ...GEORGIA... CITY SKY/WX TMP DP RH WIND PRES REMARKS SAVANNAH ARPT CLEAR 76 69 79 W6 30.04F HUNTER AAF CLEAR 75 70 84 W5 30.03S FORT STEWART CLEAR 76 69 79 W6 30.04F STATESBORO NOT AVBL SYLVANIA PTSUNNY 74 73 96 CALM 30.04F CLAXTON FAIR 73 73 100 CALM 30.05F THOMSON MOCLDY 73 73 100 CALM 30.09F AUGUSTA-BUSH MOCLDY 75 68 78 CALM 30.02F AUGUSTA-DANIEL MOCLDY 77 69 76 W3 30.04F SWAINSBORO FAIR 73 73 100 NW3 30.06F VIDALIA N/A 72 70 94 CALM 30.06F ALMA PTCLDY 76 70 82 NW3 30.07F WAYCROSS PTCLDY 76 73 93 CALM 30.07F JESUP N/A 77 70 78 NW5 30.06F BRUNSWICK PTCLDY 77 68 73 W5 30.06F SAINT SIMONS PTCLDY 78 70 76 W5 30.05F $$ SCZ027-028-034-036>038-045-046-048>050-GAZ119-141-210800- ...LAKE AND SUPPLEMENTAL COASTAL OBSERVATIONS... STATION/POSITION TIME TEMP WIND PRES WAVE SWELL AIR SEA DIR/SP/G HT/PER HT/PER/DIR (UTC) (F) (DEG/KT/KT) (MB) (FT/S) (FT/S/D) UPR LAKE MARION NOT AVBL WINYAH BAY 0700 80 230/ 2 1016.0S LAKE MURRAY 0700 80 220/ 3/ 4 1015.6F ACE BASIN NERRS 0700 76 CALM 1017.0S FORT PULASKI 0700 79 240/ 5/ 7 1017.2F SAPELO ISLAND 0700 80 300/ 3 1018.0S $$ ANZ835-935-AMZ111-154-330-350-352-354-374-450-454-472-210800- ...C-MAN AND BUOY OBSERVATIONS... STATION/POSITION TIME TEMP WIND PRES WAVE SWELL AIR SEA DIR/SP/G HT/PER HT/PER/DIR (UTC) (F) (DEG/KT/KT) (MB) (FT/S) (FT/S/D) FOLLY BEACH CMAN 0700 80 290/ 4/ 5 1016.7F BUOY 41004 0700 83 84 230/ 10/ 12 1015.6F 2/ 4 2/ 8 BUOY 41008 0700 84 85 300/ 10/ 12 1017.2F 2/ 4 2/120/ 7 5E ST. MARYS GA 0700 82 N/A 2/ 8 FRYING PAN BUOY NOT AVBL BUOY 41025 0700 78 260/ 4/ 6 1016.0F 3/ 8 3/ 70/ 8 CAPE LOOKOUT NC 0700 80 210/ 4/ 5 1015.8F BUOY 41002 0602 81 81 250/ 14/ 16 1018.1F 3/ 7 2/260/ 7 BUOY 41010 0700 84 85 200/ 12/ 16 1018.4F 2/ 4 2/110/ 9 BUOY 41012 NOT AVBL ST AUGUSTINE FL 0700 77 260/ 4/ 5 1018.9F CAPERS NEARSHORE NOT AVBL FRIPP NEARSHORE NOT AVBL $$

USA.gov is the U.S. government's official web portal to all federal, state and local government web resources and services.